Year,Month,Day,Hour,Minute,Value (Times are PST for temperature in C)
2015,05,30,00,00,14.70
2015,05,30,00,01,14.70
2015,05,30,00,02,14.70
2015,05,30,00,03,14.70
2015,05,30,00,04,14.70
2015,05,30,00,05,14.70
2015,05,30,00,06,14.70
2015,05,30,00,07,14.70
2015,05,30,00,08,14.60
2015,05,30,00,09,14.60
2015,05,30,00,10,14.60
2015,05,30,00,11,14.60
2015,05,30,00,12,14.60
2015,05,30,00,13,14.50
2015,05,30,00,14,14.50
2015,05,30,00,15,14.40
2015,05,30,00,16,14.40
2015,05,30,00,17,14.40
2015,05,30,00,18,14.40
2015,05,30,00,19,14.30
2015,05,30,00,20,14.30
2015,05,30,00,21,14.30
2015,05,30,00,22,14.30
2015,05,30,00,23,14.30
2015,05,30,00,24,14.20
2015,05,30,00,25,14.20
2015,05,30,00,26,14.20
2015,05,30,00,27,14.20
2015,05,30,00,28,14.20
2015,05,30,00,29,14.20
2015,05,30,00,30,14.20
2015,05,30,00,31,14.10
2015,05,30,00,32,14.10
2015,05,30,00,33,14.10
2015,05,30,00,34,14.10
2015,05,30,00,35,14.10
2015,05,30,00,36,14.00
2015,05,30,00,37,14.00
2015,05,30,00,38,14.00
2015,05,30,00,39,13.90
2015,05,30,00,40,13.90
2015,05,30,00,41,13.90
2015,05,30,00,42,13.90
2015,05,30,00,43,13.90
2015,05,30,00,44,13.80
2015,05,30,00,45,13.80
2015,05,30,00,46,13.80
2015,05,30,00,47,13.80
2015,05,30,00,48,13.80
2015,05,30,00,49,13.70
2015,05,30,00,50,13.70
2015,05,30,00,51,13.70
2015,05,30,00,52,13.70
2015,05,30,00,53,13.70
2015,05,30,00,54,13.70
2015,05,30,00,55,13.60
2015,05,30,00,56,13.60
2015,05,30,00,57,13.60
2015,05,30,00,58,13.60
2015,05,30,00,59,13.60
2015,05,30,01,00,13.60
2015,05,30,01,01,13.50
2015,05,30,01,02,13.50
2015,05,30,01,03,13.50
2015,05,30,01,04,13.40
2015,05,30,01,05,13.40
2015,05,30,01,06,13.40
2015,05,30,01,07,13.40
2015,05,30,01,08,13.30
2015,05,30,01,09,13.30
2015,05,30,01,10,13.30
2015,05,30,01,11,13.30
2015,05,30,01,12,13.30
2015,05,30,01,13,13.30
2015,05,30,01,14,13.30
2015,05,30,01,15,13.30
2015,05,30,01,16,13.30
2015,05,30,01,17,13.30
2015,05,30,01,18,13.30
2015,05,30,01,19,13.30
2015,05,30,01,20,13.30
2015,05,30,01,21,13.20
2015,05,30,01,22,13.20
2015,05,30,01,23,13.20
2015,05,30,01,24,13.10
2015,05,30,01,25,13.10
2015,05,30,01,26,13.10
2015,05,30,01,27,13.00
2015,05,30,01,28,13.00
2015,05,30,01,29,13.00
2015,05,30,01,30,12.90
2015,05,30,01,31,12.90
2015,05,30,01,32,12.90
2015,05,30,01,33,12.90
2015,05,30,01,34,12.80
2015,05,30,01,35,12.80
2015,05,30,01,36,12.80
2015,05,30,01,37,12.80
2015,05,30,01,38,12.80
2015,05,30,01,39,12.80
2015,05,30,01,40,12.70
2015,05,30,01,41,12.70
2015,05,30,01,42,12.70
2015,05,30,01,43,12.70
2015,05,30,01,44,12.70
2015,05,30,01,45,12.70
2015,05,30,01,46,12.70
2015,05,30,01,47,12.70
2015,05,30,01,48,12.60
2015,05,30,01,49,12.60
2015,05,30,01,50,12.60
2015,05,30,01,51,12.50
2015,05,30,01,52,12.50
2015,05,30,01,53,12.50
2015,05,30,01,54,12.40
2015,05,30,01,55,12.40
2015,05,30,01,56,12.40
2015,05,30,01,57,12.30
2015,05,30,01,58,12.30
2015,05,30,01,59,12.30
2015,05,30,02,00,12.30
2015,05,30,02,01,12.30
2015,05,30,02,02,12.20
2015,05,30,02,03,12.20
2015,05,30,02,04,12.20
2015,05,30,02,05,12.20
2015,05,30,02,06,12.20
2015,05,30,02,07,12.20
2015,05,30,02,08,12.10
2015,05,30,02,09,12.10
2015,05,30,02,10,12.10
2015,05,30,02,11,12.10
2015,05,30,02,12,12.00
2015,05,30,02,13,12.00
2015,05,30,02,14,12.00
2015,05,30,02,15,12.00
2015,05,30,02,16,12.00
2015,05,30,02,17,12.00
2015,05,30,02,18,12.00
2015,05,30,02,19,12.10
2015,05,30,02,20,12.10
2015,05,30,02,21,12.10
2015,05,30,02,22,12.10
2015,05,30,02,23,12.10
2015,05,30,02,24,12.10
2015,05,30,02,25,12.10
2015,05,30,02,26,12.10
2015,05,30,02,27,12.10
2015,05,30,02,28,12.10
2015,05,30,02,29,12.10
2015,05,30,02,30,12.10
2015,05,30,02,31,12.10
2015,05,30,02,32,12.10
2015,05,30,02,33,12.10
2015,05,30,02,34,12.10
2015,05,30,02,35,12.10
2015,05,30,02,36,12.00
2015,05,30,02,37,12.00
2015,05,30,02,38,12.00
2015,05,30,02,39,12.00
2015,05,30,02,40,11.90
2015,05,30,02,41,11.90
2015,05,30,02,42,11.90
2015,05,30,02,43,11.90
2015,05,30,02,44,11.90
2015,05,30,02,45,11.90
2015,05,30,02,46,11.80
2015,05,30,02,47,11.80
2015,05,30,02,48,11.80
2015,05,30,02,49,11.80
2015,05,30,02,50,11.80
2015,05,30,02,51,11.80
2015,05,30,02,52,11.70
2015,05,30,02,53,11.70
2015,05,30,02,54,11.70
2015,05,30,02,55,11.70
2015,05,30,02,56,11.70
2015,05,30,02,57,11.70
2015,05,30,02,58,11.70
2015,05,30,02,59,11.60
2015,05,30,03,00,11.60
2015,05,30,03,01,11.50
2015,05,30,03,02,11.50
2015,05,30,03,03,11.40
2015,05,30,03,04,11.40
2015,05,30,03,05,11.40
2015,05,30,03,06,11.40
2015,05,30,03,07,11.40
2015,05,30,03,08,11.40
2015,05,30,03,09,11.40
2015,05,30,03,10,11.40
2015,05,30,03,11,11.30
2015,05,30,03,12,11.30
2015,05,30,03,13,11.30
2015,05,30,03,14,11.30
2015,05,30,03,15,11.30
2015,05,30,03,16,11.20
2015,05,30,03,17,11.20
2015,05,30,03,18,11.20
2015,05,30,03,19,11.10
2015,05,30,03,20,11.10
2015,05,30,03,21,11.10
2015,05,30,03,22,11.10
2015,05,30,03,23,11.00
2015,05,30,03,24,11.00
2015,05,30,03,25,11.00
2015,05,30,03,26,10.90
2015,05,30,03,27,10.90
2015,05,30,03,28,10.90
2015,05,30,03,29,10.90
2015,05,30,03,30,10.90
2015,05,30,03,31,10.80
2015,05,30,03,32,10.80
2015,05,30,03,33,10.80
2015,05,30,03,34,10.80
2015,05,30,03,35,10.80
2015,05,30,03,36,10.80
2015,05,30,03,37,10.70
2015,05,30,03,38,10.70
2015,05,30,03,39,10.70
2015,05,30,03,40,10.70
2015,05,30,03,41,10.70
2015,05,30,03,42,10.70
2015,05,30,03,43,10.70
2015,05,30,03,44,10.70
2015,05,30,03,45,10.70
2015,05,30,03,46,10.60
2015,05,30,03,47,10.60
2015,05,30,03,48,10.60
2015,05,30,03,49,10.60
2015,05,30,03,50,10.60
2015,05,30,03,51,10.60
2015,05,30,03,52,10.60
2015,05,30,03,53,10.50
2015,05,30,03,54,10.60
2015,05,30,03,55,10.50
2015,05,30,03,56,10.50
2015,05,30,03,57,10.50
2015,05,30,03,58,10.50
2015,05,30,03,59,10.50
2015,05,30,04,00,10.50
2015,05,30,04,01,10.50
2015,05,30,04,02,10.50
2015,05,30,04,03,10.50
2015,05,30,04,04,10.50
2015,05,30,04,05,10.50
2015,05,30,04,06,10.50
2015,05,30,04,07,10.50
2015,05,30,04,08,10.50
2015,05,30,04,09,10.50
2015,05,30,04,10,10.50
2015,05,30,04,11,10.50
2015,05,30,04,12,10.50
2015,05,30,04,13,10.50
2015,05,30,04,14,10.50
2015,05,30,04,15,10.50
2015,05,30,04,16,10.50
2015,05,30,04,17,10.50
2015,05,30,04,18,10.50
2015,05,30,04,19,10.50
2015,05,30,04,20,10.50
2015,05,30,04,21,10.50
2015,05,30,04,22,10.50
2015,05,30,04,23,10.50
2015,05,30,04,24,10.50
2015,05,30,04,25,10.50
2015,05,30,04,26,10.50
2015,05,30,04,27,10.50
2015,05,30,04,28,10.50
2015,05,30,04,29,10.50
2015,05,30,04,30,10.50
2015,05,30,04,31,10.50
2015,05,30,04,32,10.50
2015,05,30,04,33,10.50
2015,05,30,04,34,10.50
2015,05,30,04,35,10.50
2015,05,30,04,36,10.50
2015,05,30,04,37,10.50
2015,05,30,04,38,10.50
2015,05,30,04,39,10.50
2015,05,30,04,40,10.50
2015,05,30,04,41,10.40
2015,05,30,04,42,10.40
2015,05,30,04,43,10.40
2015,05,30,04,44,10.40
2015,05,30,04,45,10.40
2015,05,30,04,46,10.40
2015,05,30,04,47,10.40
2015,05,30,04,48,10.40
2015,05,30,04,49,10.40
2015,05,30,04,50,10.30
2015,05,30,04,51,10.30
2015,05,30,04,52,10.30
2015,05,30,04,53,10.30
2015,05,30,04,54,10.30
2015,05,30,04,55,10.30
2015,05,30,04,56,10.30
2015,05,30,04,57,10.30
2015,05,30,04,58,10.30
2015,05,30,04,59,10.30
2015,05,30,05,00,10.30
2015,05,30,05,01,10.30
2015,05,30,05,02,10.30
2015,05,30,05,03,10.30
2015,05,30,05,04,10.30
2015,05,30,05,05,10.30
2015,05,30,05,06,10.30
2015,05,30,05,07,10.30
2015,05,30,05,08,10.30
2015,05,30,05,09,10.30
2015,05,30,05,10,10.30
2015,05,30,05,11,10.20
2015,05,30,05,12,10.30
2015,05,30,05,13,10.20
2015,05,30,05,14,10.20
2015,05,30,05,15,10.20
2015,05,30,05,16,10.20
2015,05,30,05,17,10.20
2015,05,30,05,18,10.20
2015,05,30,05,19,10.20
2015,05,30,05,20,10.20
2015,05,30,05,21,10.20
2015,05,30,05,22,10.20
2015,05,30,05,23,10.20
2015,05,30,05,24,10.20
2015,05,30,05,25,10.20
2015,05,30,05,26,10.20
2015,05,30,05,27,10.20
2015,05,30,05,28,10.20
2015,05,30,05,29,10.20
2015,05,30,05,30,10.20
2015,05,30,05,31,10.20
2015,05,30,05,32,10.20
2015,05,30,05,33,10.20
2015,05,30,05,34,10.20
2015,05,30,05,35,10.20
2015,05,30,05,36,10.20
2015,05,30,05,37,10.20
2015,05,30,05,38,10.20
2015,05,30,05,39,10.20
2015,05,30,05,40,10.20
2015,05,30,05,41,10.20
2015,05,30,05,42,10.20
2015,05,30,05,43,10.20
2015,05,30,05,44,10.20
2015,05,30,05,45,10.20
2015,05,30,05,46,10.20
2015,05,30,05,47,10.20
2015,05,30,05,48,10.30
2015,05,30,05,49,10.30
2015,05,30,05,50,10.30
2015,05,30,05,51,10.30
2015,05,30,05,52,10.30
2015,05,30,05,53,10.30
2015,05,30,05,54,10.30
2015,05,30,05,55,10.30
2015,05,30,05,56,10.30
2015,05,30,05,57,10.30
2015,05,30,05,58,10.30
2015,05,30,05,59,10.30
2015,05,30,06,00,10.30
2015,05,30,06,01,10.30
2015,05,30,06,02,10.30
2015,05,30,06,03,10.30
2015,05,30,06,04,10.30
2015,05,30,06,05,10.30
2015,05,30,06,06,10.30
2015,05,30,06,07,10.30
2015,05,30,06,08,10.30
2015,05,30,06,09,10.30
2015,05,30,06,10,10.30
2015,05,30,06,11,10.30
2015,05,30,06,12,10.30
2015,05,30,06,13,10.40
2015,05,30,06,14,10.40
2015,05,30,06,15,10.40
2015,05,30,06,16,10.40
2015,05,30,06,17,10.40
2015,05,30,06,18,10.40
2015,05,30,06,19,10.40
2015,05,30,06,20,10.40
2015,05,30,06,21,10.50
2015,05,30,06,22,10.50
2015,05,30,06,23,10.50
2015,05,30,06,24,10.60
2015,05,30,06,25,10.60
2015,05,30,06,26,10.60
2015,05,30,06,27,10.60
2015,05,30,06,28,10.60
2015,05,30,06,29,10.60
2015,05,30,06,30,10.70
2015,05,30,06,31,10.70
2015,05,30,06,32,10.70
2015,05,30,06,33,10.70
2015,05,30,06,34,10.70
2015,05,30,06,35,10.80
2015,05,30,06,36,10.80
2015,05,30,06,37,10.90
2015,05,30,06,38,10.90
2015,05,30,06,39,10.90
2015,05,30,06,40,10.90
2015,05,30,06,41,11.00
2015,05,30,06,42,11.00
2015,05,30,06,43,11.00
2015,05,30,06,44,11.10
2015,05,30,06,45,11.10
2015,05,30,06,46,11.10
2015,05,30,06,47,11.10
2015,05,30,06,48,11.20
2015,05,30,06,49,11.20
2015,05,30,06,50,11.20
2015,05,30,06,51,11.30
2015,05,30,06,52,11.30
2015,05,30,06,53,11.30
2015,05,30,06,54,11.30
2015,05,30,06,55,11.40
2015,05,30,06,56,11.40
2015,05,30,06,57,11.40
2015,05,30,06,58,11.40
2015,05,30,06,59,11.40
2015,05,30,07,00,11.50
2015,05,30,07,01,11.50
2015,05,30,07,02,11.50
2015,05,30,07,03,11.60
2015,05,30,07,04,11.60
2015,05,30,07,05,11.60
2015,05,30,07,06,11.70
2015,05,30,07,07,11.70
2015,05,30,07,08,11.70
2015,05,30,07,09,11.70
2015,05,30,07,10,11.70
2015,05,30,07,11,11.80
2015,05,30,07,12,11.80
2015,05,30,07,13,11.80
2015,05,30,07,14,11.80
2015,05,30,07,15,11.80
2015,05,30,07,16,11.90
2015,05,30,07,17,11.90
2015,05,30,07,18,11.90
2015,05,30,07,19,12.00
2015,05,30,07,20,12.10
2015,05,30,07,21,12.00
2015,05,30,07,22,12.00
2015,05,30,07,23,12.00
2015,05,30,07,24,12.00
2015,05,30,07,25,12.00
2015,05,30,07,26,12.00
2015,05,30,07,27,12.10
2015,05,30,07,28,12.10
2015,05,30,07,29,12.10
2015,05,30,07,30,12.10
2015,05,30,07,31,12.20
2015,05,30,07,32,12.20
2015,05,30,07,33,12.20
2015,05,30,07,34,12.30
2015,05,30,07,35,12.30
2015,05,30,07,36,12.30
2015,05,30,07,37,12.30
2015,05,30,07,38,12.30
2015,05,30,07,39,12.40
2015,05,30,07,40,12.40
2015,05,30,07,41,12.40
2015,05,30,07,42,12.50
2015,05,30,07,43,12.50
2015,05,30,07,44,12.50
2015,05,30,07,45,12.50
2015,05,30,07,46,12.50
2015,05,30,07,47,12.50
2015,05,30,07,48,12.60
2015,05,30,07,49,12.60
2015,05,30,07,50,12.70
2015,05,30,07,51,12.70
2015,05,30,07,52,12.70
2015,05,30,07,53,12.70
2015,05,30,07,54,12.70
2015,05,30,07,55,12.70
2015,05,30,07,56,12.60
2015,05,30,07,57,12.60
2015,05,30,07,58,12.60
2015,05,30,07,59,12.60
2015,05,30,08,00,12.60
2015,05,30,08,01,12.60
2015,05,30,08,02,12.60
2015,05,30,08,03,12.70
2015,05,30,08,04,12.70
2015,05,30,08,05,12.70
2015,05,30,08,06,12.70
2015,05,30,08,07,12.70
2015,05,30,08,08,12.70
2015,05,30,08,09,12.70
2015,05,30,08,10,12.70
2015,05,30,08,11,12.80
2015,05,30,08,12,12.80
2015,05,30,08,13,12.90
2015,05,30,08,14,12.90
2015,05,30,08,15,13.00
2015,05,30,08,16,13.00
2015,05,30,08,17,13.10
2015,05,30,08,18,13.10
2015,05,30,08,19,13.10
2015,05,30,08,20,13.10
2015,05,30,08,21,13.10
2015,05,30,08,22,13.20
2015,05,30,08,23,13.20
2015,05,30,08,24,13.20
2015,05,30,08,25,13.30
2015,05,30,08,26,13.30
2015,05,30,08,27,13.40
2015,05,30,08,28,13.40
2015,05,30,08,29,13.50
2015,05,30,08,30,13.60
2015,05,30,08,31,13.60
2015,05,30,08,32,13.70
2015,05,30,08,33,13.70
2015,05,30,08,34,13.80
2015,05,30,08,35,13.80
2015,05,30,08,36,13.80
2015,05,30,08,37,13.80
2015,05,30,08,38,13.80
2015,05,30,08,39,13.80
2015,05,30,08,40,13.80
2015,05,30,08,41,13.70
2015,05,30,08,42,13.70
2015,05,30,08,43,13.70
2015,05,30,08,44,13.70
2015,05,30,08,45,13.80
2015,05,30,08,46,13.80
2015,05,30,08,47,13.90
2015,05,30,08,48,13.90
2015,05,30,08,49,13.90
2015,05,30,08,50,14.00
2015,05,30,08,51,14.00
2015,05,30,08,52,14.00
2015,05,30,08,53,14.10
2015,05,30,08,54,14.10
2015,05,30,08,55,14.10
2015,05,30,08,56,14.10
2015,05,30,08,57,14.10
2015,05,30,08,58,14.10
2015,05,30,08,59,14.20
2015,05,30,09,00,14.20
2015,05,30,09,01,14.20
2015,05,30,09,02,14.30
2015,05,30,09,03,14.30
2015,05,30,09,04,14.20
2015,05,30,09,05,14.20
2015,05,30,09,06,14.20
2015,05,30,09,07,14.20
2015,05,30,09,08,14.20
2015,05,30,09,09,14.20
2015,05,30,09,10,14.20
2015,05,30,09,11,14.20
2015,05,30,09,12,14.20
2015,05,30,09,13,14.30
2015,05,30,09,14,14.30
2015,05,30,09,15,14.40
2015,05,30,09,16,14.40
2015,05,30,09,17,14.40
2015,05,30,09,18,14.40
2015,05,30,09,19,14.50
2015,05,30,09,20,14.50
2015,05,30,09,21,14.50
2015,05,30,09,22,14.60
2015,05,30,09,23,14.60
2015,05,30,09,24,14.60
2015,05,30,09,25,14.60
2015,05,30,09,26,14.60
2015,05,30,09,27,14.60
2015,05,30,09,28,14.60
2015,05,30,09,29,14.60
2015,05,30,09,30,14.70
2015,05,30,09,31,14.70
2015,05,30,09,32,14.80
2015,05,30,09,33,14.90
2015,05,30,09,34,14.90
2015,05,30,09,35,14.90
2015,05,30,09,36,14.90
2015,05,30,09,37,14.80
2015,05,30,09,38,14.80
2015,05,30,09,39,14.90
2015,05,30,09,40,14.90
2015,05,30,09,41,15.00
2015,05,30,09,42,15.00
2015,05,30,09,43,15.10
2015,05,30,09,44,15.20
2015,05,30,09,45,15.20
2015,05,30,09,46,15.30
2015,05,30,09,47,15.30
2015,05,30,09,48,15.30
2015,05,30,09,49,15.30
2015,05,30,09,50,15.20
2015,05,30,09,51,15.20
2015,05,30,09,52,15.20
2015,05,30,09,53,15.20
2015,05,30,09,54,15.30
2015,05,30,09,55,15.40
2015,05,30,09,56,15.40
2015,05,30,09,57,15.40
2015,05,30,09,58,15.40
2015,05,30,09,59,15.50
2015,05,30,10,00,15.50
2015,05,30,10,01,15.50
2015,05,30,10,02,15.50
2015,05,30,10,03,15.50
2015,05,30,10,04,15.60
2015,05,30,10,05,15.70
2015,05,30,10,06,15.80
2015,05,30,10,07,15.90
2015,05,30,10,08,16.00
2015,05,30,10,09,16.10
2015,05,30,10,10,16.20
2015,05,30,10,11,16.30
2015,05,30,10,12,16.30
2015,05,30,10,13,16.30
2015,05,30,10,14,16.30
2015,05,30,10,15,16.30
2015,05,30,10,16,16.20
2015,05,30,10,17,16.10
2015,05,30,10,18,16.10
2015,05,30,10,19,16.10
2015,05,30,10,20,16.20
2015,05,30,10,21,16.20
2015,05,30,10,22,16.20
2015,05,30,10,23,16.20
2015,05,30,10,24,16.20
2015,05,30,10,25,16.10
2015,05,30,10,26,16.10
2015,05,30,10,27,16.20
2015,05,30,10,28,16.20
2015,05,30,10,29,16.10
2015,05,30,10,30,16.10
2015,05,30,10,31,16.10
2015,05,30,10,32,16.10
2015,05,30,10,33,16.10
2015,05,30,10,34,16.10
2015,05,30,10,35,16.10
2015,05,30,10,36,16.10
2015,05,30,10,37,16.10
2015,05,30,10,38,16.10
2015,05,30,10,39,16.10
2015,05,30,10,40,16.10
2015,05,30,10,41,16.10
2015,05,30,10,42,16.10
2015,05,30,10,43,16.10
2015,05,30,10,44,16.20
2015,05,30,10,45,16.20
2015,05,30,10,46,16.20
2015,05,30,10,47,16.30
2015,05,30,10,48,16.20
2015,05,30,10,49,16.20
2015,05,30,10,50,16.20
2015,05,30,10,51,16.20
2015,05,30,10,52,16.30
2015,05,30,10,53,16.20
2015,05,30,10,54,16.10
2015,05,30,10,55,16.00
2015,05,30,10,56,15.90
2015,05,30,10,57,15.80
2015,05,30,10,58,15.80
2015,05,30,10,59,15.80
2015,05,30,11,00,15.80
2015,05,30,11,01,15.80
2015,05,30,11,02,15.80
2015,05,30,11,03,15.80
2015,05,30,11,04,15.80
2015,05,30,11,05,15.90
2015,05,30,11,06,15.90
2015,05,30,11,07,16.00
2015,05,30,11,08,16.00
2015,05,30,11,09,16.10
2015,05,30,11,10,16.10
2015,05,30,11,11,16.10
2015,05,30,11,12,16.10
2015,05,30,11,13,16.10
2015,05,30,11,14,16.00
2015,05,30,11,15,15.90
2015,05,30,11,16,15.90
2015,05,30,11,17,15.90
2015,05,30,11,18,15.90
2015,05,30,11,19,15.90
2015,05,30,11,20,15.90
2015,05,30,11,21,15.90
2015,05,30,11,22,16.00
2015,05,30,11,23,15.90
2015,05,30,11,24,15.90
2015,05,30,11,25,16.00
2015,05,30,11,26,16.10
2015,05,30,11,27,16.10
2015,05,30,11,28,16.20
2015,05,30,11,29,16.20
2015,05,30,11,30,16.20
2015,05,30,11,31,16.20
2015,05,30,11,32,16.20
2015,05,30,11,33,16.10
2015,05,30,11,34,16.10
2015,05,30,11,35,16.00
2015,05,30,11,36,16.00
2015,05,30,11,37,16.00
2015,05,30,11,38,16.00
2015,05,30,11,39,15.90
2015,05,30,11,40,15.90
2015,05,30,11,41,15.80
2015,05,30,11,42,15.80
2015,05,30,11,43,15.80
2015,05,30,11,44,15.80
2015,05,30,11,45,15.80
2015,05,30,11,46,15.80
2015,05,30,11,47,15.80
2015,05,30,11,48,15.80
2015,05,30,11,49,15.80
2015,05,30,11,50,15.90
2015,05,30,11,51,15.90
2015,05,30,11,52,15.90
2015,05,30,11,53,15.90
2015,05,30,11,54,15.90
2015,05,30,11,55,15.90
2015,05,30,11,56,15.90
2015,05,30,11,57,16.00
2015,05,30,11,58,16.00
2015,05,30,11,59,16.10
2015,05,30,12,00,16.20
2015,05,30,12,01,16.20
2015,05,30,12,02,16.20
2015,05,30,12,03,16.20
2015,05,30,12,04,16.20
2015,05,30,12,05,16.10
2015,05,30,12,06,16.10
2015,05,30,12,07,16.00
2015,05,30,12,08,15.90
2015,05,30,12,09,15.90
2015,05,30,12,10,15.90
2015,05,30,12,11,15.80
2015,05,30,12,12,15.80
2015,05,30,12,13,15.80
2015,05,30,12,14,15.70
2015,05,30,12,15,15.60
2015,05,30,12,16,15.50
2015,05,30,12,17,15.50
2015,05,30,12,18,15.50
2015,05,30,12,19,15.50
2015,05,30,12,20,15.60
2015,05,30,12,21,15.50
2015,05,30,12,22,15.60
2015,05,30,12,23,15.60
2015,05,30,12,24,15.60
2015,05,30,12,25,15.60
2015,05,30,12,26,15.60
2015,05,30,12,27,15.50
2015,05,30,12,28,15.50
2015,05,30,12,29,15.60
2015,05,30,12,30,15.70
2015,05,30,12,31,15.80
2015,05,30,12,32,15.90
2015,05,30,12,33,16.00
2015,05,30,12,34,16.10
2015,05,30,12,35,16.20
2015,05,30,12,36,16.30
2015,05,30,12,37,16.30
2015,05,30,12,38,16.30
2015,05,30,12,39,16.30
2015,05,30,12,40,16.30
2015,05,30,12,41,16.30
2015,05,30,12,42,16.30
2015,05,30,12,43,16.30
2015,05,30,12,44,16.30
2015,05,30,12,45,16.40
2015,05,30,12,46,16.40
2015,05,30,12,47,16.40
2015,05,30,12,48,16.40
2015,05,30,12,49,16.40
2015,05,30,12,50,16.40
2015,05,30,12,51,16.40
2015,05,30,12,52,16.50
2015,05,30,12,53,16.60
2015,05,30,12,54,16.70
2015,05,30,12,55,16.70
2015,05,30,12,56,16.70
2015,05,30,12,57,16.60
2015,05,30,12,58,16.60
2015,05,30,12,59,16.60
2015,05,30,13,00,16.50
2015,05,30,13,01,16.50
2015,05,30,13,02,16.40
2015,05,30,13,03,16.40
2015,05,30,13,04,16.40
2015,05,30,13,05,16.50
2015,05,30,13,06,16.50
2015,05,30,13,07,16.50
2015,05,30,13,08,16.50
2015,05,30,13,09,16.50
2015,05,30,13,10,16.50
2015,05,30,13,11,16.60
2015,05,30,13,12,16.60
2015,05,30,13,13,16.60
2015,05,30,13,14,16.60
2015,05,30,13,15,16.60
2015,05,30,13,16,16.60
2015,05,30,13,17,16.70
2015,05,30,13,18,16.60
2015,05,30,13,19,16.60
2015,05,30,13,20,16.60
2015,05,30,13,21,16.60
2015,05,30,13,22,16.60
2015,05,30,13,23,16.70
2015,05,30,13,24,16.80
2015,05,30,13,25,16.90
2015,05,30,13,26,17.00
2015,05,30,13,27,17.10
2015,05,30,13,28,17.10
2015,05,30,13,29,17.20
2015,05,30,13,30,17.20
2015,05,30,13,31,17.20
2015,05,30,13,32,17.30
2015,05,30,13,33,17.30
2015,05,30,13,34,17.40
2015,05,30,13,35,17.40
2015,05,30,13,36,17.40
2015,05,30,13,37,17.50
2015,05,30,13,38,17.50
2015,05,30,13,39,17.60
2015,05,30,13,40,17.60
2015,05,30,13,41,17.60
2015,05,30,13,42,17.70
2015,05,30,13,43,17.70
2015,05,30,13,44,17.70
2015,05,30,13,45,17.80
2015,05,30,13,46,17.80
2015,05,30,13,47,17.80
2015,05,30,13,48,17.80
2015,05,30,13,49,17.80
2015,05,30,13,50,17.90
2015,05,30,13,51,17.90
2015,05,30,13,52,18.00
2015,05,30,13,53,18.10
2015,05,30,13,54,18.10
2015,05,30,13,55,18.20
2015,05,30,13,56,18.20
2015,05,30,13,57,18.30
2015,05,30,13,58,18.40
2015,05,30,13,59,18.50
2015,05,30,14,00,18.50
2015,05,30,14,01,18.40
2015,05,30,14,02,18.30
2015,05,30,14,03,18.20
2015,05,30,14,04,18.10
2015,05,30,14,05,18.10
2015,05,30,14,06,18.10
2015,05,30,14,07,18.20
2015,05,30,14,08,18.30
2015,05,30,14,09,18.50
2015,05,30,14,10,18.50
2015,05,30,14,11,18.60
2015,05,30,14,12,18.60
2015,05,30,14,13,18.70
2015,05,30,14,14,18.70
2015,05,30,14,15,18.80
2015,05,30,14,16,18.80
2015,05,30,14,17,18.90
2015,05,30,14,18,18.90
2015,05,30,14,19,19.00
2015,05,30,14,20,19.00
2015,05,30,14,21,19.10
2015,05,30,14,22,19.20
2015,05,30,14,23,19.30
2015,05,30,14,24,19.30
2015,05,30,14,25,19.30
2015,05,30,14,26,19.40
2015,05,30,14,27,19.40
2015,05,30,14,28,19.50
2015,05,30,14,29,19.50
2015,05,30,14,30,19.50
2015,05,30,14,31,19.60
2015,05,30,14,32,19.50
2015,05,30,14,33,19.40
2015,05,30,14,34,19.40
2015,05,30,14,35,19.30
2015,05,30,14,36,19.00
2015,05,30,14,37,18.60
2015,05,30,14,38,18.30
2015,05,30,14,39,18.00
2015,05,30,14,40,17.90
2015,05,30,14,41,17.80
2015,05,30,14,42,17.90
2015,05,30,14,43,18.20
2015,05,30,14,44,18.50
2015,05,30,14,45,18.80
2015,05,30,14,46,19.10
2015,05,30,14,47,19.30
2015,05,30,14,48,19.50
2015,05,30,14,49,19.70
2015,05,30,14,50,19.80
2015,05,30,14,51,19.90
2015,05,30,14,52,20.00
2015,05,30,14,53,20.10
2015,05,30,14,54,20.20
2015,05,30,14,55,20.20
2015,05,30,14,56,20.20
2015,05,30,14,57,20.20
2015,05,30,14,58,20.20
2015,05,30,14,59,20.20
2015,05,30,15,00,20.30
2015,05,30,15,01,20.30
2015,05,30,15,02,20.20
2015,05,30,15,03,20.20
2015,05,30,15,04,20.10
2015,05,30,15,05,20.10
2015,05,30,15,06,20.10
2015,05,30,15,07,20.10
2015,05,30,15,08,20.20
2015,05,30,15,09,20.30
2015,05,30,15,10,20.30
2015,05,30,15,11,20.40
2015,05,30,15,12,20.40
2015,05,30,15,13,20.50
2015,05,30,15,14,20.50
2015,05,30,15,15,20.50
2015,05,30,15,16,20.60
2015,05,30,15,17,20.70
2015,05,30,15,18,20.80
2015,05,30,15,19,20.80
2015,05,30,15,20,20.80
2015,05,30,15,21,20.80
2015,05,30,15,22,20.70
2015,05,30,15,23,20.60
2015,05,30,15,24,20.60
2015,05,30,15,25,20.50
2015,05,30,15,26,20.50
2015,05,30,15,27,20.50
2015,05,30,15,28,20.50
2015,05,30,15,29,20.50
2015,05,30,15,30,20.60
2015,05,30,15,31,20.60
2015,05,30,15,32,20.70
2015,05,30,15,33,20.80
2015,05,30,15,34,20.80
2015,05,30,15,35,20.90
2015,05,30,15,36,20.90
2015,05,30,15,37,20.90
2015,05,30,15,38,20.90
2015,05,30,15,39,20.90
2015,05,30,15,40,20.80
2015,05,30,15,41,20.80
2015,05,30,15,42,20.70
2015,05,30,15,43,20.70
2015,05,30,15,44,20.70
2015,05,30,15,45,20.80
2015,05,30,15,46,20.90
2015,05,30,15,47,20.90
2015,05,30,15,48,20.90
2015,05,30,15,49,21.00
2015,05,30,15,50,21.10
2015,05,30,15,51,21.00
2015,05,30,15,52,21.00
2015,05,30,15,53,21.00
2015,05,30,15,54,21.00
2015,05,30,15,55,21.00
2015,05,30,15,56,21.10
2015,05,30,15,57,21.10
2015,05,30,15,58,21.00
2015,05,30,15,59,20.90
2015,05,30,16,00,20.80
2015,05,30,16,01,20.80
2015,05,30,16,02,20.80
2015,05,30,16,03,20.90
2015,05,30,16,04,21.00
2015,05,30,16,05,21.10
2015,05,30,16,06,21.10
2015,05,30,16,07,21.10
2015,05,30,16,08,21.10
2015,05,30,16,09,21.10
2015,05,30,16,10,21.10
2015,05,30,16,11,21.20
2015,05,30,16,12,21.20
2015,05,30,16,13,21.20
2015,05,30,16,14,21.20
2015,05,30,16,15,21.20
2015,05,30,16,16,21.10
2015,05,30,16,17,21.10
2015,05,30,16,18,21.10
2015,05,30,16,19,21.10
2015,05,30,16,20,21.10
2015,05,30,16,21,21.20
2015,05,30,16,22,21.20
2015,05,30,16,23,21.20
2015,05,30,16,24,21.30
2015,05,30,16,25,21.30
2015,05,30,16,26,21.20
2015,05,30,16,27,21.20
2015,05,30,16,28,21.20
2015,05,30,16,29,21.20
2015,05,30,16,30,21.30
2015,05,30,16,31,21.30
2015,05,30,16,32,21.30
2015,05,30,16,33,21.30
2015,05,30,16,34,21.30
2015,05,30,16,35,21.20
2015,05,30,16,36,21.20
2015,05,30,16,37,21.20
2015,05,30,16,38,21.20
2015,05,30,16,39,21.20
2015,05,30,16,40,21.10
2015,05,30,16,41,21.10
2015,05,30,16,42,21.10
2015,05,30,16,43,21.10
2015,05,30,16,44,21.10
2015,05,30,16,45,21.20
2015,05,30,16,46,21.20
2015,05,30,16,47,21.20
2015,05,30,16,48,21.20
2015,05,30,16,49,21.20
2015,05,30,16,50,21.20
2015,05,30,16,51,21.10
2015,05,30,16,52,21.10
2015,05,30,16,53,21.10
2015,05,30,16,54,21.20
2015,05,30,16,55,21.20
2015,05,30,16,56,21.20
2015,05,30,16,57,21.20
2015,05,30,16,58,21.10
2015,05,30,16,59,21.10
2015,05,30,17,00,21.10
2015,05,30,17,01,21.00
2015,05,30,17,02,21.00
2015,05,30,17,03,20.90
2015,05,30,17,04,20.90
2015,05,30,17,05,20.80
2015,05,30,17,06,20.90
2015,05,30,17,07,20.90
2015,05,30,17,08,20.90
2015,05,30,17,09,20.90
2015,05,30,17,10,21.00
2015,05,30,17,11,21.00
2015,05,30,17,12,21.10
2015,05,30,17,13,21.10
2015,05,30,17,14,21.20
2015,05,30,17,15,21.20
2015,05,30,17,16,21.20
2015,05,30,17,17,21.10
2015,05,30,17,18,21.00
2015,05,30,17,19,21.00